Location: Cahas Mountain Overlook
(37.0833°N, 80.1000°W)
Time: 03:53:42
(UTC-05:00)

Courier 1B Rocket - All Passes

Search period start: 15 February 2026 00:00
Search period end: 25 February 2026 00:00
Orbit: 920 x 1201 km, 28.3° (Epoch: 15 February)

Date Brightness Start Highest point End Pass type
(mag) Time Alt. Az. Time Alt. Az. Time Alt. Az.
15 Feb - 00:05:38 10° WSW 00:11:45 35° S 00:18:17 10° SE night (unlit)
15 Feb - 01:59:44 10° WSW 02:04:40 20° SSW 02:09:47 10° SSE night (unlit)
15 Feb - 19:20:31 10° SSW 19:25:00 20° SSE 19:29:36 10° ESE visible
15 Feb - 21:11:52 10° SW 21:17:39 36° S 21:23:47 10° ESE visible
15 Feb - 23:04:31 10° WSW 23:10:35 38° S 23:17:04 10° ESE night (unlit)
16 Feb - 00:58:04 10° WSW 01:03:31 25° SSW 01:09:16 10° SSE night (unlit)
16 Feb - 18:20:47 10° S 18:24:04 15° SSE 18:27:25 10° ESE visible
16 Feb - 20:11:08 10° SW 20:16:36 31° SSE 20:22:19 10° ESE visible
16 Feb - 22:03:30 10° WSW 22:09:27 39° S 22:15:48 10° ESE visible
16 Feb - 23:56:41 10° WSW 00:02:24 29° SSW 00:08:27 10° SE night (unlit)
17 Feb - 01:51:52 10° SW 01:55:11 14° SSW 01:58:36 10° S night (unlit)
17 Feb - 19:10:35 10° SW 19:15:37 26° SSE 19:20:47 10° ESE visible
17 Feb - 21:02:33 10° WSW 21:08:21 38° S 21:14:29 10° ESE visible
17 Feb - 22:55:29 10° WSW 23:01:16 34° S 23:07:25 10° SE night (unlit)
18 Feb - 00:49:37 10° WSW 00:54:05 18° SSW 00:58:46 10° SSE night (unlit)
18 Feb - 18:10:17 10° SSW 18:14:41 20° SSE 18:19:06 10° ESE daylight
18 Feb - 20:01:42 10° SW 20:07:18 35° S 20:13:08 10° ESE visible
18 Feb - 21:54:22 10° WSW 22:00:10 37° S 22:06:17 10° ESE visible
18 Feb - 23:47:56 10° WSW 23:53:00 23° SSW 23:58:20 10° SSE night (unlit)
19 Feb - 17:10:26 10° S 17:13:45 15° SSE 17:17:04 10° ESE daylight
19 Feb - 19:00:56 10° SW 19:06:18 31° SSE 19:11:47 10° ESE visible
19 Feb - 20:53:21 10° WSW 20:59:05 38° S 21:05:06 10° ESE visible
19 Feb - 22:46:34 10° WSW 22:51:56 28° SSW 22:57:36 10° SE night (unlit)
20 Feb - 00:42:00 10° SW 00:44:38 12° SSW 00:47:21 10° S night (unlit)
20 Feb - 18:00:19 10° SW 18:05:19 26° SSE 18:10:21 10° ESE daylight
20 Feb - 19:52:23 10° WSW 19:58:03 37° S 20:03:54 10° ESE visible
20 Feb - 21:45:21 10° WSW 21:50:53 32° S 21:56:40 10° SE visible
20 Feb - 23:39:35 10° WSW 23:43:36 17° SSW 23:47:46 10° SSE night (unlit)
21 Feb - 16:59:54 10° SSW 17:04:22 20° SSE 17:08:48 10° ESE daylight
21 Feb - 18:51:28 10° SW 18:57:02 35° S 19:02:40 10° ESE visible
21 Feb - 20:44:13 10° WSW 20:49:50 35° S 20:55:39 10° ESE visible
21 Feb - 22:37:52 10° WSW 22:42:35 22° SSW 22:47:29 10° SSE visible
22 Feb - 15:59:53 10° S 16:03:26 15° SSE 16:06:55 10° ESE daylight
22 Feb - 17:50:37 10° SW 17:56:01 31° SSE 18:01:24 10° ESE daylight
22 Feb - 19:43:09 10° WSW 19:48:48 37° S 19:54:35 10° ESE visible
22 Feb - 21:36:27 10° WSW 21:41:34 26° SSW 21:46:53 10° SE visible
22 Feb - 23:32:24 10° SW 23:34:11 11° SSW 23:36:00 10° S night (unlit)
23 Feb - 15:01:00 10° SSE 15:02:29 11° SSE 15:03:56 10° SE daylight
23 Feb - 16:49:53 10° SW 16:55:02 26° SSE 17:00:05 10° ESE daylight
23 Feb - 18:42:06 10° WSW 18:47:46 37° S 18:53:28 10° ESE visible
23 Feb - 20:35:11 10° WSW 20:40:34 31° SSW 20:46:05 10° SE visible
23 Feb - 22:29:36 10° WSW 22:33:12 16° SSW 22:36:54 10° SSE visible
24 Feb - 15:49:20 10° SSW 15:54:03 21° SSE 15:58:39 10° ESE daylight
24 Feb - 17:41:06 10° WSW 17:46:45 35° S 17:52:20 10° ESE daylight
24 Feb - 19:34:00 10° WSW 19:39:33 35° S 19:45:10 10° SE visible
24 Feb - 21:27:46 10° WSW 21:32:14 20° SSW 21:36:48 10° SSE visible
